[ hide orbit diagram ]
For accurate long-term ephemerides, please instead use our Horizons system.This orbit viewer was implemented using two-body methods, and hence should not be used for determining accurate long-term trajectories (over several years or decades) or planetary encounter circumstances.
Orbital Elements at Epoch 2459200.5 (2020-Dec-17.0) TDB
Reference: JPL 18 (heliocentric ecliptic J2000)
Element | Value | Uncertainty (1-sigma) | Units |
e | .01283390810798239 | 6.4578e-08 | |
a | 2.804120359228313 | 2.0548e-08 | au |
q | 2.768132536214254 | 1.843e-07 | au |
i | 5.516929515117169 | 6.6185e-06 | deg |
node | 213.2558959692866 | 5.389e-05 | deg |
peri | 309.3669655968081 | 0.00020975 | deg |
M | 221.5226675012659 | 0.00020612 | deg |
tp | 2459860.235100852800 (2022-Oct-07.73510085) | 0.00098442 | TDB |
period | 1715.115622328868 4.70 | 1.8852e-05 5.161e-08 | d yr |
n | .2098983854576372 | 2.3071e-09 | deg/d |
Q | 2.840108182242372 | 2.0811e-08 | au |
|
| | Orbit Determination Parameters
Additional Information
|
[ show covariance matrix ]
Physical Parameter Table
Parameter |
Symbol |
Value |
Units |
Sigma |
Reference |
Notes |
absolute magnitude |
H |
15.9 |
|
n/a |
MPO437026 |
|
|
214067 (2004 FK111) Discovered 2004-Mar-26 by LINEAR at Socorro |
Reference: 20090509/Numbers.arc | Last Updated: 2009-05-11 |
|
[ show close-approach data ]
|